Pagina principale
METAR-TAF:

METAR-TAF

Aeroporti :

East Hampton Airport

East Hampton, New York, Stati Uniti

latitudine: 40-57-34N, longitudine: 072-15-07W, altezza: 17 m

Osservazione

Il bollettino è stato emesso 16 minuti fa, alle 11:55 UTC
Vento 7 kt da nord/nord-ovest
Temperature 2°C
Umidità 93%
Pressione 1005 hPa
Visibilità: 16.1 km
Cielo coperto ad un'altezza di 1200 ft

METAR: KHTO 171155Z AUTO 33007KT 10SM OVC012 02/01 A2968 RMK AO2 70053 T00230007 10038 20022

Ora: 07:11 (12:11 UTC)


TAF: mancante

Osservazioni e previsioni meteorologiche di più di 4000 aeroporti (messaggi METAR e TAF).

Le stazioni disponibili sono rappresentate dai dischi gialli e rossi sulla carta.

Puntare il mouse per vedere il nome della stazione.

Clicca sopra per visualizzare le osservazioni e previsioni meteorologiche.

Per cambiare la mappa : fare clic sui pulsanti verdi con una croce nera per ingrandire, il pulsante verde con un trattino per diminuire, o sulla freccia verde per le mappe adiacenti.


METAR-TAF: